Date String (YYYY-MM-DD hh:mm:ss) UTC,Instrument flags,absolute air pressure of the measurement (hPa),sample flow rate (lpm),inlet stack bypass flow (lpm),air temperature of the measurement (°C),ambient temperature measured by the external sensor (°C),aerosol sample conditioner tube jacket temperature (°C),OPC LED temperature (°C),internal box temperature (°C),relative humidity of the measurement (%),span deviation,mass concentration of particles derived from Lorenz-Mie calculation of OPC scattering (μg/m³),mass concentration of particles derived from Lorenz-Mie calculation of OPC scattering (μg/m³),mass concentration of particles derived from Lorenz-Mie calculation of OPC scattering (μg/m³)
DateTimeUTC,F1_M11,P_M11,Q1_M11,Q2_M11,T1_M11,T2_M11,T3_M11,T4_M11,T5_M11,U1_M11,ZSPAN_M11,X0_M11,X2_M11,X1_M11
2023-12-31 17:00:00,SystemResetWarning,0831.2,5.00,000.00,020.6,020.0,000.0,028.9,022.1,14.9,0000.0,0009.80,0004.49,0003.99
2023-12-31 17:01:00,SystemResetWarning,0831.2,4.99,000.00,020.7,020.0,000.0,028.9,022.1,14.9,0000.0,0009.84,0004.49,0003.99
2023-12-31 17:02:00,SystemResetWarning,0831.2,5.00,000.00,020.7,020.0,000.0,028.9,022.2,14.7,0000.0,0008.97,0004.49,0003.99
2023-12-31 17:03:00,SystemResetWarning,0831.2,5.00,000.00,020.7,020.0,000.0,028.9,022.2,14.7,0000.0,0009.45,0004.50,0003.99
2023-12-31 17:04:00,SystemResetWarning,0831.2,5.00,000.00,020.7,020.1,000.0,028.9,022.2,14.8,0000.0,0009.36,0004.50,0003.98
2023-12-31 17:05:00,SystemResetWarning,0831.2,5.00,000.00,020.7,020.1,000.0,028.9,022.2,14.9,0000.0,0009.35,0004.48,0003.99
2023-12-31 17:06:00,SystemResetWarning,0831.1,5.01,000.00,020.7,020.1,000.0,029.0,022.2,14.9,0000.0,0009.48,0004.45,0003.99
2023-12-31 17:07:00,SystemResetWarning,0831.2,5.00,000.00,020.7,020.1,000.0,029.0,022.2,15.0,0000.0,0009.49,0004.47,0003.99
2023-12-31 17:08:00,SystemResetWarning,0831.2,5.00,000.00,020.8,020.1,000.0,029.0,022.2,14.9,0000.0,0008.95,0004.47,0003.98
2023-12-31 17:09:00,SystemResetWarning,0831.2,4.99,000.00,020.8,020.1,000.0,029.0,022.2,15.0,0000.0,0008.56,0004.43,0003.97
2023-12-31 17:10:00,SystemResetWarning,0831.1,4.99,000.00,020.8,020.1,000.0,029.0,022.3,15.0,0000.0,0008.35,0004.39,0003.97
2023-12-31 17:11:00,SystemResetWarning,0831.1,5.00,000.00,020.8,020.1,000.0,029.0,022.3,15.0,0000.0,0008.65,0004.37,0003.96
2023-12-31 17:12:00,SystemResetWarning,0831.1,5.01,000.00,020.8,020.2,000.0,029.0,022.3,14.9,0000.0,0008.48,0004.35,0003.96
2023-12-31 17:13:00,SystemResetWarning,0831.1,5.01,000.00,020.8,020.2,000.0,029.0,022.3,15.1,0000.0,0008.71,0004.35,0003.96
2023-12-31 17:14:00,SystemResetWarning,0831.1,5.00,000.00,020.8,020.2,000.0,029.0,022.3,15.1,0000.0,0008.51,0004.35,0003.95
2023-12-31 17:15:00,SystemResetWarning,0831.1,5.00,000.00,020.8,020.2,000.0,029.1,022.4,15.0,0000.0,0008.47,0004.33,0003.94
2023-12-31 17:16:00,SystemResetWarning,0831.1,4.99,000.00,020.9,020.2,000.0,029.1,022.4,15.0,0000.0,0008.42,0004.31,0003.93
2023-12-31 17:17:00,SystemResetWarning,0831.2,5.00,000.00,020.9,020.2,000.0,029.1,022.4,14.9,0000.0,0008.25,0004.32,0003.92
2023-12-31 17:18:00,SystemResetWarning,0831.1,5.00,000.00,020.9,020.2,000.0,029.1,022.4,15.1,0000.0,0008.51,0004.32,0003.92
2023-12-31 17:19:00,SystemResetWarning,0831.1,5.01,000.00,020.9,020.2,000.0,029.1,022.4,15.2,0000.0,0008.57,0004.32,0003.93
2023-12-31 17:20:00,SystemResetWarning,0831.2,4.99,000.00,020.9,020.3,000.0,029.1,022.4,15.1,0000.0,0008.57,0004.32,0003.94
2023-12-31 17:21:00,SystemResetWarning,0831.2,5.00,000.00,020.9,020.3,000.0,029.1,022.5,15.1,0000.0,0008.62,0004.37,0003.94
2023-12-31 17:22:00,SystemResetWarning,0831.1,5.00,000.00,021.0,020.3,000.0,029.1,022.5,15.2,0000.0,0008.40,0004.39,0003.96
2023-12-31 17:23:00,SystemResetWarning,0831.1,4.99,000.00,021.0,020.3,000.0,029.2,022.5,15.1,0000.0,0008.97,0004.42,0003.96
2023-12-31 17:24:00,SystemResetWarning,0831.1,5.00,000.00,021.0,020.4,000.0,029.2,022.5,15.1,0000.0,0008.77,0004.41,0003.96
2023-12-31 17:25:00,SystemResetWarning,0831.1,5.01,000.00,021.0,020.4,000.0,029.2,022.5,15.1,0000.0,0009.15,0004.37,0003.97
2023-12-31 17:26:00,SystemResetWarning,0831.2,5.00,000.00,021.0,020.4,000.0,029.2,022.5,15.0,0000.0,0009.79,0004.37,0003.96
2023-12-31 17:27:00,SystemResetWarning,0831.2,5.00,000.00,021.0,020.4,000.0,029.2,022.5,15.0,0000.0,0010.06,0004.40,0003.97
2023-12-31 17:28:00,SystemResetWarning,0831.1,5.00,000.00,021.0,020.4,000.0,029.2,022.6,14.9,0000.0,0010.91,0004.41,0003.96
2023-12-31 17:29:00,SystemResetWarning,0831.1,5.00,000.00,021.1,020.4,000.0,029.2,022.6,14.9,0000.0,0010.93,0004.42,0003.96
2023-12-31 17:30:00,SystemResetWarning,0831.1,5.00,000.00,021.1,020.4,000.0,029.3,022.6,14.9,0000.0,0010.79,0004.40,0003.94
2023-12-31 17:31:00,SystemResetWarning,0831.1,5.01,000.00,021.1,020.5,000.0,029.3,022.6,14.9,0000.0,0010.89,0004.42,0003.93
2023-12-31 17:32:00,SystemResetWarning,0831.1,5.00,000.00,021.1,020.5,000.0,029.3,022.6,14.9,0000.0,0011.67,0004.43,0003.93
2023-12-31 17:33:00,SystemResetWarning,0831.2,5.00,000.00,021.1,020.5,000.0,029.3,022.6,14.8,0000.0,0011.69,0004.40,0003.91
2023-12-31 17:34:00,SystemResetWarning,0831.1,4.99,000.00,021.1,020.5,000.0,029.3,022.7,14.7,0000.0,0011.21,0004.38,0003.90
2023-12-31 17:35:00,SystemResetWarning,0831.1,5.00,000.00,021.1,020.5,000.0,029.3,022.7,14.7,0000.0,0011.22,0004.38,0003.89
2023-12-31 17:36:00,SystemResetWarning,0831.1,5.00,000.00,021.2,020.5,000.0,029.3,022.7,14.9,0000.0,0011.00,0004.38,0003.88
2023-12-31 17:37:00,SystemResetWarning,0831.1,5.00,000.00,021.2,020.6,000.0,029.4,022.7,15.0,0000.0,0010.06,0004.37,0003.86
2023-12-31 17:38:00,SystemResetWarning,0831.0,4.99,000.00,021.2,020.6,000.0,029.4,022.7,14.9,0000.0,0009.82,0004.35,0003.85
2023-12-31 17:39:00,SystemResetWarning,0831.0,5.00,000.00,021.2,020.6,000.0,029.4,022.8,14.8,0000.0,0009.38,0004.35,0003.86
2023-12-31 17:40:00,SystemResetWarning,0830.9,5.00,000.00,021.2,020.6,000.0,029.4,022.8,14.9,0000.0,0008.92,0004.33,0003.85
2023-12-31 17:41:00,SystemResetWarning,0830.9,5.00,000.00,021.2,020.6,000.0,029.4,022.8,14.7,0000.0,0008.92,0004.34,0003.86
2023-12-31 17:42:00,SystemResetWarning,0830.9,5.01,000.00,021.3,020.6,000.0,029.4,022.8,14.6,0000.0,0008.84,0004.32,0003.86
2023-12-31 17:43:00,SystemResetWarning,0830.9,5.00,000.00,021.3,020.6,000.0,029.5,022.8,14.7,0000.0,0008.09,0004.32,0003.86
2023-12-31 17:44:00,SystemResetWarning,0830.9,5.00,000.00,021.3,020.7,000.0,029.5,022.8,14.7,0000.0,0008.10,0004.35,0003.85
2023-12-31 17:45:00,SystemResetWarning,0830.9,5.01,000.00,021.3,020.7,000.0,029.5,022.9,14.8,0000.0,0008.24,0004.39,0003.86
2023-12-31 17:46:00,SystemResetWarning,0831.0,5.00,000.00,021.3,020.7,000.0,029.5,022.9,14.4,0000.0,0008.08,0004.39,0003.85
2023-12-31 17:47:00,SystemResetWarning,0831.0,5.00,000.00,021.3,020.7,000.0,029.5,022.9,14.4,0000.0,0007.93,0004.38,0003.86
2023-12-31 17:48:00,SystemResetWarning,0830.9,5.00,000.00,021.4,020.8,000.0,029.5,022.9,14.8,0000.0,0007.85,0004.38,0003.87
2023-12-31 17:49:00,SystemResetWarning,0830.9,4.99,000.00,021.4,020.8,000.0,029.5,022.9,14.8,0000.0,0008.12,0004.38,0003.87
2023-12-31 17:50:00,SystemResetWarning,0830.9,4.99,000.00,021.4,020.8,000.0,029.6,023.0,14.5,0000.0,0007.95,0004.36,0003.86
2023-12-31 17:51:00,SystemResetWarning,0830.9,4.99,000.00,021.4,020.8,000.0,029.6,023.0,14.6,0000.0,0007.96,0004.35,0003.86
2023-12-31 17:52:00,SystemResetWarning,0830.9,5.00,000.00,021.4,020.8,000.0,029.6,023.0,14.7,0000.0,0008.57,0004.36,0003.86
2023-12-31 17:53:00,SystemResetWarning,0830.9,5.00,000.00,021.5,020.8,000.0,029.6,023.0,14.6,0000.0,0009.51,0004.38,0003.86
2023-12-31 17:54:00,SystemResetWarning,0830.9,4.99,000.00,021.5,020.9,000.0,029.6,023.0,14.6,0000.0,0009.74,0004.39,0003.86
2023-12-31 17:55:00,SystemResetWarning,0830.9,5.01,000.00,021.5,020.9,000.0,029.7,023.0,14.6,0000.0,0009.59,0004.34,0003.86
2023-12-31 17:56:00,SystemResetWarning,0830.9,5.01,000.00,021.5,020.9,000.0,029.7,023.1,14.6,0000.0,0009.51,0004.28,0003.85
2023-12-31 17:57:00,SystemResetWarning,0830.9,5.00,000.00,021.5,020.9,000.0,029.7,023.1,14.6,0000.0,0009.47,0004.25,0003.84
2023-12-31 17:58:00,SystemResetWarning,0830.8,5.00,000.00,021.6,020.9,000.0,029.7,023.1,14.6,0000.0,0009.49,0004.25,0003.83
2023-12-31 17:59:00,SystemResetWarning,0830.9,5.00,000.00,021.6,020.9,000.0,029.7,023.1,14.5,0000.0,0009.56,0004.26,0003.83
